Station DPXA2 - Dutch Harbor Pilot Station, AK Image indicating link to RSS feed of recent meteorological observations for station DPXA2


Conditions at DPXA2 as of
(8:55 am AKDT)
1655 GMT on 04/14/2024:
     

Click on the graph icon in the table below to see a time series plot of the last five days of that observation.

5-day plot - Wind Direction Wind Direction (WDIR):NNW ( 340 deg true )
5-day plot - Wind Speed Wind Speed (WSPD): 3 kts
5-day plot - Wind Gust Wind Gust (GST): 4 kts
5-day plot - Air Temperature Air Temperature (ATMP): 31.5 °F
5-day plot - Dew Point Dew Point (DEWP): 22.3 °F
5-day plot - Wind Chill Wind Chill (CHILL): 28.2 °F
5-day plot - Wind Speed at 10 Meters Wind Speed at 10 meters (WSPD10M): 4 kts
5-day plot - Wind Speed at 20 Meters Wind Speed at 20 meters (WSPD20M): 4 kts
5-day plot -  Wind Speed, Wind Gust and Atmospheric Pressure Combined plot of Wind Speed, Gust, and Air Pressure
Previous observations
TIME
(AKDT)
5-day plot - Wind Direction
WDIR
 
5-day plot - Wind Speed
WSPD
kts
5-day plot - Wind Gust
GST
kts
5-day plot - Wave Height
WVHT
ft
5-day plot - Dominant Wave Period
DPD
sec
5-day plot - Average Wave Period
APD
sec
5-day plot - Mean Wave Direction
MWD
 
5-day plot - Atmospheric Pressure
PRES
in
5-day plot - Pressure Tendency
PTDY
in
5-day plot - Air Temperature
ATMP
°F
5-day plot - Water Temperature
WTMP
°F
5-day plot - Dew Point
DEWP
°F
5-day plot - Salinity
SAL
psu
5-day plot - Visibility
VIS
nmi
5-day plot - Tide (above MLLW)
TIDE
ft
2024-04-14 08:45 amNNW 3 5------ 31.5- 22.6---
2024-04-14 08:35 am NW 2 5------ 31.6- 22.6---
2024-04-14 08:25 am W 3 4------ 31.6- 22.5---
2024-04-14 08:14 am W 4 6------ 31.5- 22.3---
2024-04-14 08:04 am W 4 7------ 31.5- 22.8---
2024-04-14 07:54 am W 5 8------ 31.6- 22.5---
2024-04-14 07:44 am W 5 7------ 31.6- 22.1---
2024-04-14 07:34 am W 6 8------ 31.6- 22.1---
2024-04-14 07:24 amWSW 6 9------ 31.6- 22.3---
2024-04-14 07:14 am W 6 9------ 31.6- 22.1---
2024-04-14 07:04 amWSW 7 10------ 31.8- 22.1---
2024-04-14 06:54 amWSW 8 10------ 31.6- 22.1---
2024-04-14 06:44 amWSW 7 10------ 31.8- 22.5---
2024-04-14 06:34 amWSW 8 11------ 31.8- 22.5---
2024-04-14 06:24 amWSW 7 11------ 31.8- 22.3---
2024-04-14 06:14 am SW 6 11------ 31.8- 22.3---
2024-04-14 06:04 am SW 6 9------ 31.8- 22.5---
2024-04-14 05:55 amWSW 6 8------ 32.0- 22.1---
2024-04-14 05:45 am SW 6 10------ 31.8- 22.3---
2024-04-14 05:34 am SW 4 7------ 31.6- 22.1---
2024-04-14 05:24 amSSW 4 7------ 31.6- 22.1---
2024-04-14 05:14 am SW 5 9------ 31.6- 22.3---
2024-04-14 05:04 am SW 5 8------ 31.8- 22.3---
2024-04-14 04:54 amSSW 4 6------ 31.8- 22.1---
2024-04-14 04:44 amSSW 4 6------ 31.8- 22.5---
2024-04-14 04:34 amSSW 3 6------ 31.6- 23.4---
2024-04-14 04:24 amWNW 2 5------ 31.5- 24.4---
2024-04-14 04:14 am W 4 6------ 31.3- 24.1---
2024-04-14 04:04 am W 4 6------ 31.1- 24.1---
2024-04-14 03:54 am W 3 6------ 31.5- 24.4---
2024-04-14 03:44 am W 2 4------ 31.3- 24.4---
2024-04-14 03:34 am- 0 1------ 31.3- 24.3---
2024-04-14 03:24 am- 0 1------ 31.3- 24.1---
2024-04-14 03:14 amSSE 1 3------ 31.3- 24.3---
2024-04-14 03:04 am S 1 3------ 30.9- 23.9---
2024-04-14 02:54 am SW 2 3------ 30.7- 23.7---
2024-04-14 02:44 am S 2 5------ 30.6- 23.4---
2024-04-14 02:34 am S 2 5------ 30.6- 23.2---
2024-04-14 02:24 amSSE 3 5------ 30.6- 23.2---
2024-04-14 02:14 amSSE 3 5------ 30.7- 23.7---
2024-04-14 02:04 amSSE 4 6------ 30.7- 23.4---
2024-04-14 01:54 amSSE 3 5------ 30.9- 23.9---
2024-04-14 01:44 am S 3 7------ 31.1- 24.3---
2024-04-14 01:34 am S 3 6------ 31.6- 24.3---
2024-04-14 01:24 amSSW 3 5------ 32.0- 24.4---
2024-04-14 01:14 amSSW 2 4------ 32.0- 24.3---
2024-04-14 01:04 am S 3 5------ 32.2- 24.3---
2024-04-14 12:54 am SW 3 7------ 32.4- 24.3---
2024-04-14 12:34 amWSW 6 9------ 32.4- 24.6---
2024-04-14 12:24 am W 6 9------ 32.4- 24.4---
2024-04-14 12:16 am W 6 9------ 32.4- 24.3---
2024-04-14 12:04 am W 7 9------ 32.5- 24.3---
2024-04-13 11:54 pm W 7 10------ 32.7- 23.9---
2024-04-13 11:44 pm W 7 10------ 32.7- 23.9---
2024-04-13 11:34 pm W 6 10------ 32.9- 24.3---
2024-04-13 11:24 pm W 6 9------ 32.9- 23.9---
2024-04-13 11:14 pm W 6 9------ 32.9- 23.9---
2024-04-13 11:04 pm W 6 9------ 32.9- 23.7---
2024-04-13 10:54 pm W 6 10------ 33.1- 23.9---
2024-04-13 10:44 pm W 8 11------ 33.1- 23.5---
2024-04-13 10:34 pm W 8 11------ 33.3- 24.1---
2024-04-13 10:24 pm W 6 12------ 33.4- 23.7---
2024-04-13 10:14 pm W 6 11------ 33.4- 23.5---
2024-04-13 10:04 pmWNW 5 11------ 33.6- 23.7---
2024-04-13 09:54 pmWNW 5 9------ 33.8- 23.4---
2024-04-13 09:44 pmWNW 4 9------ 34.2- 23.7---
2024-04-13 09:34 pmWNW 4 9------ 34.3- 23.5---
2024-04-13 09:24 pmWNW 5 10------ 34.3- 23.9---
2024-04-13 09:14 pmWNW 5 12------ 34.3- 24.3---
2024-04-13 09:04 pmWNW 5 11------ 34.0- 23.4---
2024-04-13 08:54 pm NW 5 12------ 34.2- 23.7---
2024-04-13 08:45 pm NW 5 13------ 34.0- 23.5---
2024-04-13 08:35 pm NW 7 14------ 34.0- 23.7---
2024-04-13 08:24 pm NW 7 11------ 34.2- 23.5---
2024-04-13 08:14 pmNNW 7 12------ 34.3- 23.5---
2024-04-13 08:04 pm NW 8 12------ 34.3- 23.7---
2024-04-13 07:54 pm NW 8 14------ 34.3- 23.7---
2024-04-13 07:44 pm NW 7 14------ 34.5- 23.7---
2024-04-13 07:34 pm NW 7 12------ 34.7- 23.4---
2024-04-13 07:24 pm NW 5 11------ 34.7- 23.5---
2024-04-13 07:14 pm NW 7 13------ 34.7- 23.7---
2024-04-13 07:04 pm NW 7 14------ 34.9- 23.7---
2024-04-13 06:54 pm NW 6 13------ 35.1- 23.5---
2024-04-13 06:44 pm NW 6 13------ 35.1- 23.7---
2024-04-13 06:34 pm NW 7 14------ 35.2- 23.7---
2024-04-13 06:24 pm NW 6 13------ 35.2- 23.9---
2024-04-13 06:14 pm NW 7 15------ 35.1- 24.1---
2024-04-13 06:04 pm NW 7 13------ 34.7- 23.7---
2024-04-13 05:55 pm NW 7 13------ 35.1- 23.7---
2024-04-13 05:44 pm NW 6 12------ 35.1- 23.4---
2024-04-13 05:34 pm NW 6 13------ 34.9- 23.4---
2024-04-13 05:24 pm NW 6 13------ 34.9- 23.4---
2024-04-13 05:14 pm NW 6 15------ 34.9- 23.5---
2024-04-13 05:04 pm NW 6 14------ 34.9- 23.4---
2024-04-13 04:54 pm NW 5 13------ 34.9- 23.2---
2024-04-13 04:44 pm NW 5 13------ 34.7- 23.2---
2024-04-13 04:34 pm NW 6 12------ 34.5- 22.8---
2024-04-13 04:24 pm NW 5 10------ 34.7- 22.8---
2024-04-13 04:14 pmWNW 5 11------ 35.1- 23.5---
2024-04-13 03:54 pm NW 6 11------ 34.9- 23.7---
2024-04-13 03:44 pm NW 5 12------ 34.9- 23.5---
2024-04-13 03:34 pm NW 5 13------ 34.5- 23.0---
2024-04-13 03:24 pmWNW 4 9------ 34.7- 23.0---
2024-04-13 03:14 pmWNW 4 11------ 34.3- 23.0---
2024-04-13 03:04 pmWNW 5 10------ 34.2- 22.8---
2024-04-13 02:54 pmWNW 6 11------ 34.2- 23.2---
2024-04-13 02:44 pm NW 5 11------ 34.2- 23.0---
2024-04-13 02:34 pmWNW 6 13------ 33.6- 23.4---
2024-04-13 02:25 pmWNW 5 12------ 33.8- 23.0---
2024-04-13 02:14 pmWNW 5 12------ 33.8- 23.2---
2024-04-13 02:04 pmWNW 5 12------ 33.8- 23.2---
2024-04-13 01:54 pmWNW 6 12------ 33.6- 23.2---
2024-04-13 01:44 pm W 6 11------ 33.6- 22.8---
2024-04-13 01:34 pmWNW 5 11------ 33.6- 22.8---
2024-04-13 01:24 pmWNW 6 12------ 33.1- 22.3---
2024-04-13 01:15 pmWNW 6 14------ 33.1- 22.5---
2024-04-13 01:04 pmWNW 6 12------ 32.7- 22.5---
2024-04-13 12:54 pmNNW 9 15------ 32.4- 22.1---
2024-04-13 12:44 pmNNW 9 15------ 32.5- 22.3---
2024-04-13 12:34 pm NW 6 11------ 32.7- 22.6---
2024-04-13 12:24 pm NW 7 13------ 32.5- 22.5---
2024-04-13 12:14 pmWNW 5 11------ 32.7- 22.6---
2024-04-13 12:04 pm NW 7 16------ 32.5- 21.7---
2024-04-13 11:54 amWNW 6 13------ 32.4- 21.9---
2024-04-13 11:44 amWNW 7 15------ 32.4- 21.2---
2024-04-13 11:35 am NW 6 12------ 32.4- 21.6---
2024-04-13 11:24 amWNW 4 10------ 32.4- 21.6---
2024-04-13 11:14 am W 5 10------ 32.2- 21.7---
2024-04-13 11:04 amWNW 6 12------ 32.0- 21.7---
2024-04-13 10:54 am W 6 13------ 32.0- 21.7---
2024-04-13 10:44 amWNW 5 9------ 32.0- 21.9---
2024-04-13 10:34 amWNW 7 14------ 31.8- 21.4---
2024-04-13 10:24 am W 8 14------ 31.8- 21.4---
2024-04-13 10:14 am W 10 17------ 31.8- 21.2---
2024-04-13 10:04 am W 11 15------ 31.8- 21.4---
2024-04-13 09:54 am W 9 16------ 32.0- 22.6---
2024-04-13 09:44 am W 9 16------ 32.0- 22.6---
2024-04-13 09:34 amWNW 6 14------ 32.0- 22.5---
2024-04-13 09:24 amWNW 6 14------ 32.0- 22.6---
2024-04-13 09:14 amWNW 7 16------ 31.8- 22.5---
2024-04-13 09:04 amWNW 7 15------ 32.0- 22.8---
2024-04-13 08:55 am W 8 14------ 31.8- 22.3---